DW9622 Weather Reports


time (UTC)temp
C
wind
direction
speed
KPH
gust
KPH
rain 1hr
cm
rain 24hr
cm
rain mn
cm
humidity
%
barometer
mb
20260504151008 15 142 1.6 3.2 0.00 0.00 0.00 82 1011.2
20260504150508 14 130 1.6 3.2 0.00 0.00 0.00 85 1011.1
20260504141012 9 333 0.0 3.2 0.00 0.00 0.00 96 1010.8
20260504140503 9 333 0.0 3.2 0.00 0.00 0.00 96 1010.9
20260504130505 7 115 0.0 3.2 0.00 0.00 0.00 94 1010.3
20260504110506 8 290 0.0 3.2 0.00 0.00 0.00 93 1010.3
20260504100503 8 271 0.0 3.2 0.00 0.00 0.00 92 1010.1
20260504082007 10 173 0.0 3.2 0.00 0.00 0.00 90 1010.0
20260504081529 10 173 1.6 1.6 0.00 0.00 0.00 90 1010.0
20260504081012 10 125 1.6 3.2 0.00 0.00 0.00 90 1010.1
20260504080504 10 103 0.0 3.2 0.00 0.00 0.00 89 1010.0
20260504050506 13 203 3.2 4.8 0.00 0.00 0.00 79 1009.9
20260504050007 13 210 1.6 3.2 0.00 0.00 0.00 79 1010.0
20260504045501 14 218 1.6 3.2 0.00 0.00 0.00 79 1010.0
20260504045001 14 196 1.6 3.2 0.00 0.00 0.00 78 1010.0
20260504044508 14 192 1.6 3.2 0.00 0.00 0.00 77 1010.0
20260504044002 15 219 3.2 3.2 0.00 0.00 0.00 77 1010.1
20260504043503 15 225 3.2 3.2 0.00 0.00 0.00 75 1010.1
20260504043012 15 216 1.6 4.8 0.00 0.00 0.00 75 1010.1
20260504042503 15 209 3.2 4.8 0.00 0.00 0.00 74 1010.0
20260504042003 15 219 3.2 4.8 0.00 0.00 0.00 73 1010.0
20260504041510 16 228 3.2 3.2 0.00 0.00 0.00 73 1010.0
20260504041002 16 221 1.6 3.2 0.00 0.00 0.00 72 1010.0
20260504040503 16 223 3.2 6.4 0.00 0.00 0.00 71 1010.0
20260504040008 16 198 3.2 6.4 0.00 0.00 0.00 70 1010.0
20260504035503 16 193 3.2 4.8 0.00 0.00 0.00 70 1009.9
20260504035004 17 211 1.6 4.8 0.00 0.00 0.00 70 1010.0
20260504034517 17 205 1.6 6.4 0.00 0.00 0.00 69 1009.9
20260504034001 17 215 3.2 6.4 0.00 0.00 0.00 68 1009.9
20260504033503 17 209 3.2 4.8 0.00 0.00 0.00 68 1009.9
20260504033021 18 215 3.2 4.8 0.00 0.00 0.00 67 1010.0
20260504032503 18 205 1.6 4.8 0.00 0.00 0.00 65 1010.0
20260504032005 19 205 3.2 4.8 0.00 0.00 0.00 64 1009.9
20260504031518 19 202 3.2 4.8 0.00 0.00 0.00 63 1009.9
20260504031003 20 204 3.2 4.8 0.00 0.00 0.00 63 1009.9
20260504030505 20 197 1.6 3.2 0.00 0.00 0.00 62 1009.9
20260504030012 20 196 3.2 4.8 0.00 0.00 0.00 60 1010.0
20260504025502 21 193 3.2 4.8 0.00 0.00 0.00 59 1009.9
20260504025003 21 192 3.2 4.8 0.00 0.00 0.00 58 1009.9
20260504024510 21 181 1.6 4.8 0.00 0.00 0.00 58 1009.9
20260504024004 21 212 1.6 4.8 0.00 0.00 0.00 57 1010.0
20260504023503 22 228 3.2 6.4 0.00 0.00 0.00 55 1010.0
20260504023016 22 215 3.2 6.4 0.00 0.00 0.00 55 1009.9
20260504022503 22 228 4.8 8.0 0.00 0.00 0.00 53 1009.9
20260504022003 23 209 4.8 8.0 0.00 0.00 0.00 53 1010.0
20260504021508 23 216 3.2 9.7 0.00 0.00 0.00 53 1010.0
20260504021003 23 175 4.8 9.7 0.00 0.00 0.00 53 1010.0
20260504020503 24 208 4.8 8.0 0.00 0.00 0.00 51 1010.0
20260504020015 24 153 6.4 8.0 0.00 0.00 0.00 51 1010.0
20260504015504 25 189 3.2 8.0 0.00 0.00 0.00 50 1010.1
20260504015004 25 202 3.2 6.4 0.00 0.00 0.00 46 1010.2
20260504014510 26 250 1.6 4.8 0.00 0.00 0.00 39 1010.3
20260504014002 25 273 1.6 6.4 0.00 0.00 0.00 35 1010.3
20260504013505 26 237 4.8 6.4 0.00 0.00 0.00 36 1010.3
20260504013016 26 223 3.2 6.4 0.00 0.00 0.00 36 1010.3
20260504012510 25 261 3.2 8.0 0.00 0.00 0.00 36 1010.4
20260504012006 25 234 4.8 9.7 0.00 0.00 0.00 35 1010.4
20260504011509 26 238 4.8 9.7 0.00 0.00 0.00 39 1010.5
20260504011004 25 269 3.2 9.7 0.00 0.00 0.00 37 1010.6
20260504010504 26 204 4.8 9.7 0.00 0.00 0.00 36 1010.6
20260504010012 26 259 1.6 14.5 0.00 0.00 0.00 38 1010.7
20260504005504 26 277 4.8 14.5 0.00 0.00 0.00 38 1010.6
20260504005010 26 280 6.4 12.9 0.00 0.00 0.00 35 1010.8
20260504004519 26 289 8.0 12.9 0.00 0.00 0.00 36 1010.9
20260504004006 26 254 4.8 14.5 0.00 0.00 0.00 37 1010.9
20260504003503 26 279 8.0 14.5 0.00 0.00 0.00 34 1010.9
20260504003010 26 343 6.4 11.3 0.00 0.00 0.00 36 1010.9
20260504002502 26 294 6.4 11.3 0.00 0.00 0.00 35 1011.0
20260504002007 26 219 4.8 12.9 0.00 0.00 0.00 35 1011.0
20260504001512 26 228 4.8 12.9 0.00 0.00 0.00 36 1011.0
20260504001003 26 200 6.4 14.5 0.00 0.00 0.00 34 1011.1
20260504000507 26 284 9.7 14.5 0.00 0.00 0.00 34 1011.1
20260504000010 26 273 6.4 14.5 0.00 0.00 0.00 35 1011.0
20260503235504 26 246 6.4 14.5 0.00 0.00 0.00 36 1011.1
20260503235004 26 254 6.4 12.9 0.00 0.00 0.00 37 1011.3
20260503234525 26 273 4.8 12.9 0.00 0.00 0.00 39 1011.3
20260503234004 26 275 6.4 12.9 0.00 0.00 0.00 38 1011.3
20260503233504 26 301 6.4 12.9 0.00 0.00 0.00 40 1011.3
20260503233013 26 283 8.0 12.9 0.00 0.00 0.00 40 1011.3
20260503232503 26 319 6.4 14.5 0.00 0.00 0.00 41 1011.4
20260503232007 25 268 6.4 14.5 0.00 0.00 0.00 41 1011.4
20260503231512 25 274 6.4 12.9 0.00 0.00 0.00 44 1011.6
20260503231008 25 278 4.8 12.9 0.00 0.00 0.00 45 1011.6
20260503230510 25 273 4.8 11.3 0.00 0.00 0.00 46 1011.7
20260503230022 25 225 4.8 14.5 0.00 0.00 0.00 49 1011.8
20260503225503 25 280 9.7 17.7 0.00 0.00 0.00 46 1011.9
20260503225003 25 204 4.8 17.7 0.00 0.00 0.00 48 1011.9
20260503224514 25 263 8.0 14.5 0.00 0.00 0.00 46 1012.0
20260503224006 25 244 4.8 14.5 0.00 0.00 0.00 45 1012.1
20260503223502 25 290 6.4 14.5 0.00 0.00 0.00 43 1012.2
20260503223014 26 287 6.4 14.5 0.00 0.00 0.00 44 1012.2
20260503222506 26 277 6.4 16.1 0.00 0.00 0.00 44 1012.3
20260503222007 25 314 8.0 16.1 0.00 0.00 0.00 38 1012.4
20260503221519 25 277 3.2 12.9 0.00 0.00 0.00 43 1012.4
20260503221010 25 296 8.0 12.9 0.00 0.00 0.00 40 1012.4
20260503220504 25 244 6.4 11.3 0.00 0.00 0.00 38 1012.4
20260503220036 25 230 4.8 11.3 0.00 0.00 0.00 42 1012.4
20260503215507 25 309 3.2 11.3 0.00 0.00 0.00 42 1012.4
20260503215004 25 313 3.2 12.9 0.00 0.00 0.00 45 1012.4
20260503214515 25 250 4.8 12.9 0.00 0.00 0.00 44 1012.6
20260503214003 25 296 4.8 14.5 0.00 0.00 0.00 43 1012.6
20260503213505 25 279 3.2 14.5 0.00 0.00 0.00 45 1012.7
20260503213018 25 271 4.8 14.5 0.00 0.00 0.00 43 1012.8
20260503212507 25 313 6.4 12.9 0.00 0.00 0.00 44 1012.8
20260503212007 25 263 4.8 16.1 0.00 0.00 0.00 44 1012.9
20260503211514 24 300 8.0 16.1 0.00 0.00 0.00 43 1012.9
20260503211004 24 268 3.2 11.3 0.00 0.00 0.00 45 1013.0
20260503210511 24 281 4.8 12.9 0.00 0.00 0.00 44 1013.1
20260503210016 24 248 4.8 12.9 0.00 0.00 0.00 44 1013.1
20260503205507 24 273 4.8 14.5 0.00 0.00 0.00 51 1013.2
20260503205005 24 285 6.4 14.5 0.00 0.00 0.00 46 1013.2
20260503204516 24 275 6.4 12.9 0.00 0.00 0.00 48 1013.3
20260503204009 23 311 3.2 16.1 0.00 0.00 0.00 47 1013.4
20260503203504 23 298 3.2 16.1 0.00 0.00 0.00 49 1013.5
20260503203018 23 298 9.7 16.1 0.00 0.00 0.00 48 1013.6
20260503202506 23 275 4.8 16.1 0.00 0.00 0.00 48 1013.6
20260503202009 23 290 8.0 14.5 0.00 0.00 0.00 50 1013.7
20260503201508 23 317 6.4 14.5 0.00 0.00 0.00 51 1013.8
20260503201006 23 294 8.0 14.5 0.00 0.00 0.00 52 1013.8
20260503200505 23 340 9.7 17.7 0.00 0.00 0.00 51 1013.9
20260503200029 23 267 9.7 17.7 0.00 0.00 0.00 50 1013.9
20260503195503 24 267 8.0 17.7 0.00 0.00 0.00 52 1013.9
20260503195002 24 293 9.7 17.7 0.00 0.00 0.00 50 1014.0
20260503194507 24 310 8.0 16.1 0.00 0.00 0.00 52 1014.0
20260503194002 24 290 6.4 14.5 0.00 0.00 0.00 49 1014.1
20260503193508 25 13 3.2 12.9 0.00 0.00 0.00 48 1014.0
20260503193013 24 261 4.8 11.3 0.00 0.00 0.00 49 1014.0
20260503192505 24 293 3.2 12.9 0.00 0.00 0.00 46 1014.1
20260503192005 24 284 6.4 12.9 0.00 0.00 0.00 44 1014.2
20260503191526 24 315 4.8 9.7 0.00 0.00 0.00 46 1014.2
20260503191009 23 295 4.8 11.3 0.00 0.00 0.00 47 1014.2
20260503190504 23 286 4.8 11.3 0.00 0.00 0.00 45 1014.1
20260503190015 23 326 4.8 12.9 0.00 0.00 0.00 47 1014.2
20260503185508 23 306 4.8 12.9 0.00 0.00 0.00 47 1014.3
20260503185006 23 283 3.2 12.9 0.00 0.00 0.00 49 1014.3
20260503184519 23 291 3.2 12.9 0.00 0.00 0.00 48 1014.3
20260503184004 23 347 4.8 11.3 0.00 0.00 0.00 46 1014.3
20260503183505 23 285 4.8 11.3 0.00 0.00 0.00 45 1014.4
20260503183006 23 283 4.8 11.3 0.00 0.00 0.00 44 1014.5
20260503182503 23 279 3.2 6.4 0.00 0.00 0.00 47 1014.6
20260503182006 23 318 3.2 6.4 0.00 0.00 0.00 46 1014.6
20260503181515 22 9 0.0 3.2 0.00 0.00 0.00 48 1014.6
20260503181006 22 130 1.6 6.4 0.00 0.00 0.00 46 1014.7
20260503180507 22 281 3.2 6.4 0.00 0.00 0.00 47 1014.8
20260503180022 22 286 1.6 11.3 0.00 0.00 0.00 46 1014.8
20260503175503 22 288 4.8 11.3 0.00 0.00 0.00 47 1014.8
20260503175003 22 315 3.2 8.0 0.00 0.00 0.00 48 1014.9
20260503174519 22 29 3.2 8.0 0.00 0.00 0.00 46 1014.9
20260503174008 22 346 1.6 8.0 0.00 0.00 0.00 51 1015.1
20260503173504 21 16 4.8 8.0 0.00 0.00 0.00 48 1015.1
20260503173007 21 325 3.2 9.7 0.00 0.00 0.00 53 1015.2
20260503172504 21 312 4.8 9.7 0.00 0.00 0.00 52 1015.2
20260503172006 21 309 1.6 6.4 0.00 0.00 0.00 53 1015.2
20260503171513 21 21 1.6 8.0 0.00 0.00 0.00 52 1015.3
20260503171003 21 302 3.2 9.7 0.00 0.00 0.00 52 1015.2
20260503170509 21 344 4.8 9.7 0.00 0.00 0.00 52 1015.3